This demonstration page uses our WeatherBlox Daily Observations layout. Learn more.

40.92945, -100.16068

Hourly Observations for May 29, 2016

Temp ( °F °C ) Dew Point ( °F °C ) Humidity (%) Winds ( mph kmh ) Pressure ( in mb ) Visibility ( mi km ) Precip ( " mm )
12:15 am 00:15 Partly Cloudy 59 14.9 52 11 78 78 N 6 9 30 1016 10 16.0934 N/A
12:35 am 00:35 Partly Cloudy 58 14.3 52 11.2 82 82 Calm 30 1016 10 16.0934 N/A
12:55 am 00:55 Mostly Cloudy 56 13.6 52 11.2 86 86 SSE 5 7 30 1016 10 16.0934 N/A
1:15 am 01:15 Partly Cloudy 55 13 52 11 88 88 SSE 8 13 30.03 1017 10 16.0934 N/A
1:35 am 01:35 Clear 55 13 51 10.7 86 86 S 6 9 30.03 1017 10 16.0934 N/A
1:55 am 01:55 Clear 55 12.7 51 10.6 87 87 SSE 5 7 30.03 1017 10 16.0934 N/A
2:15 am 02:15 Clear 55 12.7 51 10.4 86 86 S 6 9 30.03 1017 10 16.0934 N/A
2:35 am 02:35 Clear 55 13 51 10.5 85 85 SSW 5 7 30.03 1017 10 16.0934 N/A
2:55 am 02:55 Clear 55 12.6 51 10.6 88 88 SSE 3 6 30.03 1017 10 16.0934 N/A
3:15 am 03:15 Clear 54 12.3 51 10.5 89 89 Calm 30.03 1017 10 16.0934 N/A
3:35 am 03:35 Clear 54 12.4 51 10.6 89 89 NNW 6 9 30.03 1017 10 16.0934 N/A
3:55 am 03:55 Clear 54 12.2 51 10.7 91 91 N 5 7 30.03 1017 10 16.0934 N/A
4:15 am 04:15 Clear 53 11.6 50 10.1 91 91 NNW 6 9 30.03 1017 10 16.0934 N/A
4:35 am 04:35 Clear 53 11.7 51 10.3 91 91 NNW 5 7 30.03 1017 10 16.0934 N/A
4:55 am 04:55 Clear 53 11.7 50 9.9 89 89 W 5 7 30.03 1017 10 16.0934 N/A
5:15 am 05:15 Clear 52 11 50 9.8 92 92 WNW 6 9 30.03 1017 10 16.0934 N/A
5:35 am 05:35 Clear 51 10.7 49 9.5 92 92 W 6 9 30.03 1017 10 16.0934 N/A
5:55 am 05:55 Clear 51 10.8 49 9.6 92 92 NW 7 11 30.06 1018 10 16.0934 N/A
6:15 am 06:15 Sunny 52 11.1 50 9.9 92 92 NW 5 7 30.06 1018 10 16.0934 N/A
6:35 am 06:35 Sunny 52 11 49 9.6 91 91 WNW 5 7 30.09 1019 10 16.0934 N/A
6:55 am 06:55 Sunny 53 11.5 50 10.1 91 91 WSW 3 6 30.09 1019 10 16.0934 0 0
7:15 am 07:15 Sunny 54 12.4 51 10.7 89 89 WNW 6 9 30.09 1019 10 16.0934 N/A
7:35 am 07:35 Sunny 56 13.3 53 11.4 88 88 NW 3 6 30.09 1019 10 16.0934 N/A
7:55 am 07:55 Sunny 57 14.1 53 11.4 84 84 NW 3 6 30.06 1018 10 16.0934 N/A
8:15 am 08:15 Sunny 59 14.9 53 11.9 82 82 Calm 30.06 1018 10 16.0934 N/A
8:35 am 08:35 Sunny 60 15.8 53 11.7 77 77 NNW 5 7 30.06 1018 10 16.0934 N/A
8:55 am 08:55 Sunny 62 16.7 55 12.8 78 78 NW 3 6 30.06 1018 10 16.0934 N/A
9:15 am 09:15 Sunny 64 17.5 55 12.8 74 74 Calm 30.03 1017 10 16.0934 N/A
9:35 am 09:35 Sunny 65 18.5 55 12.6 69 69 Calm 30.03 1017 10 16.0934 N/A
9:55 am 09:55 Sunny 67 19.7 55 13 65 65 Calm 30.03 1017 10 16.0934 N/A
10:15 am 10:15 Sunny 69 20.4 54 12.4 60 60 Calm 30.03 1017 10 16.0934 N/A
10:35 am 10:35 Sunny 70 20.9 55 12.7 60 60 Calm 30 1016 10 16.0934 N/A
10:55 am 10:55 Sunny 70 21.2 55 13 60 60 Calm 30 1016 10 16.0934 N/A
11:15 am 11:15 Sunny 71 21.5 56 13.3 60 60 Calm 30 1016 10 16.0934 N/A
11:35 am 11:35 Sunny 73 22.5 56 13.1 55 55 Calm 30 1016 10 16.0934 N/A
11:55 am 11:55 Sunny 73 23 58 14.7 60 60 Calm 30 1016 10 16.0934 N/A
12:15 pm 12:15 Sunny 74 23.6 58 14.6 57 57 ESE 3 6 30 1016 10 16.0934 N/A
12:35 pm 12:35 Sunny 75 23.8 58 14.6 56 56 Calm 29.97 1015 10 16.0934 N/A
12:55 pm 12:55 Sunny 76 24.5 60 15.3 57 57 ENE 5 7 29.94 1014 10 16.0934 N/A
1:15 pm 13:15 Sunny 76 24.6 56 13.5 50 50 ENE 3 6 29.94 1014 10 16.0934 N/A
1:35 pm 13:35 Sunny 78 25.4 55 13 46 46 Calm 29.94 1014 10 16.0934 N/A
1:55 pm 13:55 Sunny 78 25.8 55 12.6 44 44 Calm 29.91 1013 10 16.0934 N/A
2:15 pm 14:15 Sunny 79 26.1 55 12.9 44 44 SSE 6 9 29.91 1013 10 16.0934 N/A
2:35 pm 14:35 Sunny 80 26.6 58 14.6 48 48 Calm 29.91 1013 10 16.0934 N/A
2:55 pm 14:55 Sunny 80 26.8 58 14.7 47 47 SSE 7 11 29.91 1013 10 16.0934 N/A
3:15 pm 15:15 Sunny 81 27 57 13.9 45 45 SSE 6 9 29.91 1013 10 16.0934 N/A
3:35 pm 15:35 Sunny 81 27.2 58 14.6 46 46 SSE 7 11 29.91 1013 10 16.0934 N/A
3:55 pm 15:55 Sunny 81 27.3 57 13.8 43 43 SSW 5 7 29.88 1012 10 16.0934 N/A
4:15 pm 16:15 Sunny 81 27.4 58 14.5 45 45 S 5 7 29.88 1012 10 16.0934 N/A
4:35 pm 16:35 Sunny 81 27.4 58 14.2 44 44 S 7 11 29.85 1011 10 16.0934 N/A
4:55 pm 16:55 Sunny 82 27.9 55 12.9 40 40 Calm 29.85 1011 10 16.0934 N/A
5:15 pm 17:15 Mostly Cloudy 81 27 58 14.3 46 46 S 13 20 29.85 1011 10 16.0934 N/A
5:35 pm 17:35 Partly Cloudy 81 27 60 15.4 49 49 SSE 16 26 29.85 1011 10 16.0934 N/A
5:55 pm 17:55 Sunny 79 26.3 57 13.8 46 46 SSE 14 22 29.88 1012 10 16.0934 N/A
6:15 pm 18:15 Sunny 77 25.1 57 14 50 50 SSE 13 20 29.85 1011 10 16.0934 N/A
6:35 pm 18:35 Sunny 75 24 58 14.2 54 54 S 18 30 29.88 1012 10 16.0934 N/A
6:55 pm 18:55 Sunny 73 22.6 58 14.6 61 61 SSW 16 26 29.91 1013 10 16.0934 N/A
7:15 pm 19:15 Partly Cloudy 71 21.4 56 13.6 61 61 SSW 14 22 29.91 1013 10 16.0934 N/A
7:35 pm 19:35 Partly Cloudy 71 21.9 54 12.4 55 55 S 13 20 29.88 1012 10 16.0934 N/A
7:55 pm 19:55 Mostly Cloudy 72 22.3 55 13 56 56 S 13 20 29.88 1012 10 16.0934 N/A
8:15 pm 20:15 Sunny 74 23.3 49 9.4 41 41 SSW 21 33 29.85 1011 10 16.0934 N/A
8:35 pm 20:35 Partly Cloudy with Nearby Thunderstorms 73 22.8 47 8.2 39 39 SW 13 20 29.91 1013 10 16.0934 N/A
8:55 pm 20:55 Mostly Cloudy with Nearby Thunderstorms 73 22.8 44 6.9 36 36 W 12 19 29.91 1013 10 16.0934 N/A
9:15 pm 21:15 Cloudy 72 22 48 9.1 44 44 NW 15 24 29.91 1013 10 16.0934 N/A
9:35 pm 21:35 Mostly Cloudy 69 20.3 53 11.4 57 57 N 18 30 29.94 1014 10 16.0934 N/A
9:55 pm 21:55 Mostly Cloudy 68 20.2 52 11 56 56 NW 9 15 29.94 1014 10 16.0934 N/A
10:15 pm 22:15 Partly Cloudy 70 21.1 49 9.7 48 48 Calm 29.94 1014 10 16.0934 N/A
10:35 pm 22:35 Clear 67 19.5 51 10.6 57 57 S 9 15 29.97 1015 10 16.0934 N/A
10:55 pm 22:55 Clear 67 19.4 53 11.4 60 60 S 9 15 29.97 1015 10 16.0934 N/A
11:20 pm 23:20 Clear 68 20.1 53 11.5 58 58 SE 7 11 29.97 1015 10 16.0934 N/A
11:35 pm 23:35 Partly Cloudy 68 19.8 53 11.4 59 59 SE 7 11 29.97 1015 10 16.0934 N/A

Powered by AerisWeather